Home   Weather   Erkelenz   Past weeks

Flag for Germany Past Weather in Erkelenz, North Rhine-Westphalia, Germany — Yesterday and Last 2 Weeks

Now
32 °F

Clear.


Feels Like: 32 °F
Forecast: 20 / 31 °F
Wind: 2 mph from Northeast

Location: Monchengladbach Airport

Current Time: Jan 18, 2017 at 5:27:52 pm

Latest Report: Jan 18, 2017 at 4:50 pm


Visibility: 4 mi

Pressure: 30.69 "Hg

Humidity: 75%

Dew Point: 25 °F

Location of ErkelenzLocation

Past Weather in Erkelenz — Graph

°F

Erkelenz Temperature Yesterday

Maximum temperature yesterday: 32 °F (at 1:50 pm)
Minimum temperature yesterday: 21 °F (at 9:20 am)
Average temperature yesterday: 28 °F

High & Low Weather Summary for the Past Weeks

 TemperatureHumidityPressure
High46 °F (Jan 11, 1:50 pm)100% (Jan 5, 9:50 am)30.74 "Hg (Jan 5, 9:50 am)
Low18 °F (Jan 18, 8:50 am)56% (Jan 5, 1:20 pm)29.36 "Hg (Jan 12, 8:20 pm)
Average35 °F85%30.18 "Hg
* Reported Jan 3 3:20 pm — Jan 18 3:50 pm, Erkelenz, Weather by CustomWeather, © 2017

Note: Actual official high and low records may vary slightly from our data, if they occured in-between our weather recording intervals... More about our weather records

Advertising

Erkelenz Weather History for the Previous 24 Hours

Scroll right to see more
 ConditionsComfort  
Time TempWeatherWind HumidityBarometerVisibility
3:50 pm
Wed, Jan 18
32 °FClear.3 mph69%30.69 "Hg5 mi
3:20 pm30 °FClear.2 mph75%30.69 "Hg4 mi
2:50 pm30 °FClear.3 mph75%30.69 "Hg4 mi
2:20 pm30 °FClear.5 mph75%30.69 "Hg4 mi
1:50 pm30 °FClear.2 mph75%30.69 "Hg4 mi
1:20 pm30 °FClear.3 mph75%30.69 "Hg4 mi
12:50 pm28 °FClear.3 mph80%30.69 "Hg4 mi
12:20 pm28 °FClear.3 mph80%30.72 "Hg4 mi
11:50 am28 °FClear.3 mph80%30.72 "Hg4 mi
11:20 am27 °FClear.5 mph80%30.72 "Hg4 mi
10:20 am25 °FClear.5 mph86%30.72 "Hg4 mi
9:50 am23 °FClear.3 mph93%30.72 "Hg4 mi
9:20 am21 °FClear.3 mph93%30.72 "Hg4 mi
8:50 am18 °FIce fog.3 mph93%30.69 "Hg3 mi
8:20 pm
Tue, Jan 17
27 °FClear.5 mph86%30.69 "Hg5 mi
7:50 pm27 °FClear.6 mph86%30.66 "Hg5 mi
7:20 pm27 °FClear.5 mph86%30.66 "Hg5 mi
6:50 pm28 °FClear.5 mph80%30.66 "Hg5 mi
6:20 pm28 °FClear.5 mph80%30.66 "Hg5 mi
5:50 pm28 °FClear.5 mph86%30.66 "Hg4 mi
5:20 pm30 °FClear.3 mph80%30.66 "Hg4 mi
Weather by CustomWeather, © 2017

See weather overviewHow to use our weather pages